Regional Weather Roundup
Issued by NWS

Home | Current Version | Previous Version | Text Only | Print | Product List | Glossary Off
Versions: 1 2 3 4 5 6 7 8 9 10 11 12 13 14 15 16 17 18 19 20 21 22 23 24 25 26 27 28

000
ASUS45 KSLC 202010
RWRUT

UTAH REGIONAL WEATHER ROUNDUP
NATIONAL WEATHER SERVICE SALT LAKE CITY UT
100 PM MST MON FEB 20 2017

UTZ001>011-023>025-202100-

NORTHERN UTAH

CITY           SKY/WX    TMP DP  RH WIND       PRES   REMARKS
BRIGHAM CITY     N/A     52  35  53 S15       29.99F
HILL AFB       CLOUDY    50  32  50 S24G31    29.99F
LOGAN          CLOUDY    51  33  50 NW3       29.98F
OGDEN          CLOUDY    51  34  52 S25G32    29.98F
SALT LAKE CITY CLOUDY    53  34  48 S26G41    29.98F
TOOELE VALLEY  PTSUNNY   54  36  50 S31G41    29.98F
WENDOVER       CLOUDY    55  37  50 S22       29.94F
HEBER CITY     PTSUNNY   50  30  46 SE9       30.05F
WEST JORDAN    CLOUDY    54  42  64 SE26      30.03F

$$

UTZ011>015-024>027-202100-

CENTRAL/NORTHEAST UTAH

CITY           SKY/WX    TMP DP  RH WIND       PRES   REMARKS
PROVO AIRPORT  CLOUDY    55  35  47 SE12G18   30.07F
MOAB/CANYONLAN MOSUNNY   51  41  68 VRB3      30.17F
DELTA          CLOUDY    50  36  57 SW25G32   30.08F
PRICE          CLOUDY    40  35  83 SE3       30.18F
RICHFIELD      MOSUNNY   55  30  38 SW20G26   30.11
ROOSEVELT      MOSUNNY   41  36  81 E3        30.19F
VERNAL         CLOUDY    41  35  79 VRB3      30.17F

$$

UTZ013>016-019>022-027-202100-

SOUTHERN UTAH

CITY           SKY/WX    TMP DP  RH WIND       PRES   REMARKS
BRYCE CANYON   FOG       34  32  92 SE15      30.23F VSB 1/2 WCI  24
CEDAR CITY     PTSUNNY   49  36  61 SW29G37   30.15F
MILFORD        MOSUNNY   53  39  59 SW30G39   30.11F
ST GEORGE      CLOUDY    56  44  64 VRB5      30.21F
HANKSVILLE     MOSUNNY   48  37  66 CALM      30.22F
KANAB          CLOUDY    50  39  66 SW9       30.30
BLANDING       PTSUNNY   48  36  63 S6        30.33S

$$

REGIONAL REPORTS     COLORADO/ARIZONA

CITY           SKY/WX    TMP DP  RH WIND       PRES   REMARKS
CRAIG, CO      CLOUDY    43  32  65 E6        30.16F
GRAND JUNCTION CLOUDY    51  40  65 NW8       30.20S
RIFLE, CO      CLOUDY    50  30  46 VRB5      30.19F
MONTROSE, CO   SUNNY     51  29  42 VRB5      30.21F
CORTEZ, CO     CLOUDY    48  35  60 VRB6      30.26F
COLORADO CITY  CLOUDY    50  41  71 S12       30.27F
PAGE, AZ       CLOUDY    52  33  48 NW6       30.23F
GRAND CANYON   CLOUDY    42  38  85 SW12      30.30F
KINGMAN, AZ    CLOUDY    54  39  57 E10       30.26F
FLAGSTAFF, AZ  CLOUDY    43  34  70 VRB6      30.30F

$$

REGIONAL REPORTS    NEVADA/IDAHO/WYOMING

CITY           SKY/WX    TMP DP  RH WIND       PRES   REMARKS
LAS VEGAS, NV  CLOUDY    61  45  55 S14G21    30.14F
ELY, NY        CLOUDY    43  36  76 SE26G36   30.06F
ELKO, NV       CLOUDY    47  37  68 S18G28    29.95F
POCATELLO, ID  LGT RAIN  43  37  79 S24G33    29.93F
BURLEY, ID     LGT RAIN  49  35  58 S16       29.89S
FORT BRIDGER,    N/A     44  29  56 W10G22    30.06F
EVANSTON, WY   CLOUDY    39  27  62 SW20      30.02F WCI  29
ROCK SPRINGS,  CLOUDY    43  27  53 SW9       30.05F
KEMMERER, WY     N/A     39  28  65 SW16      30.03F WCI  30

$$




USA.gov is the U.S. government's official web portal to all federal, state and local government web resources and services.